Zurück zum Katalog

SL-16 DEB

AktivLEO
NORAD 22295·DEBRIS·🇷🇺 Russia

Gestartet Dec 25, 1992 von Baikonur Cosmodrome

Loading…

Nächste Überflüge (nächste 24 Stunden)

TLE

AktuellSource: Space-Track

Epoche: Sep 14, 2026, 13:57 UTC

1 22295U 92093K   26257.58154142  .00000094  00000-0  80726-4 0  9995
2 22295  71.0084 339.6637 0099151 290.5237 132.8329 14.07103132729730

Verfolge SL-16 DEB in Echtzeit mit AllMySat

Download on the App Store